Hourly Data Report for April 26, 2017

All times are specified in Local Standard Time (LST). Add 1 hour to adjust for Daylight Saving Time where and when it is observed.

TORONTO CITY
ONTARIO

43°40'00.000" N
79°24'00.000" W
112.50 m
6158355
71508
XTO

Download Data

Hourly Data (April 2017)
Hourly Data Report for April 26, 2017
TIME Temp Definition
°C
Dew Point Definition
°C
Rel Hum Definition
%
Wind Dir Definition
10's deg

Wind Spd Definition
km/h
Visibility Definition
km
Stn Press Definition
kPa
Hmdx Definition


Wind Chill Definition


Weather Definition


00:00 10.3 7.5 83 LegendMM LegendMM   99.69     LegendNANA
01:00 9.7 7.2 85 LegendMM LegendMM   99.68     LegendNANA
02:00 9.6 6.9 84 LegendMM LegendMM   99.63     LegendNANA
03:00 9.7 7.2 84 LegendMM LegendMM   99.56     LegendNANA
04:00 9.4 6.9 85 LegendMM LegendMM   99.58     LegendNANA
05:00 9.5 7.1 85 LegendMM LegendMM   99.57     LegendNANA
06:00 9.7 7.3 85 LegendMM LegendMM   99.54     LegendNANA
07:00 10.0 7.5 85 LegendMM LegendMM   99.58     LegendNANA
08:00 10.2 7.8 85 LegendMM LegendMM   99.61     LegendNANA
09:00 10.3 7.8 84 LegendMM LegendMM   99.59     LegendNANA
10:00 11.1 8.2 83 LegendMM LegendMM   99.61     LegendNANA
11:00 11.4 8.3 82 LegendMM LegendMM   99.60     LegendNANA
12:00 12.2 8.6 79 LegendMM LegendMM   99.53     LegendNANA
13:00 12.5 9.1 80 LegendMM LegendMM   99.46     LegendNANA
14:00 13.4 9.4 77 LegendMM LegendMM   99.40     LegendNANA
15:00 14.4 10.0 75 LegendMM LegendMM   99.31     LegendNANA
16:00 14.3 10.0 75 LegendMM LegendMM   99.25     LegendNANA
17:00 14.2 10.2 77 LegendMM LegendMM   99.19     LegendNANA
18:00 14.0 10.0 77 LegendMM LegendMM   99.19     LegendNANA
19:00 13.6 10.1 79 LegendMM LegendMM   99.17     LegendNANA
20:00 13.8 10.3 80 LegendMM LegendMM   99.23     LegendNANA
21:00 13.9 10.4 79 LegendMM LegendMM   99.25     LegendNANA
22:00 14.2 10.8 80 LegendMM LegendMM   99.19     LegendNANA
23:00 15.0 11.1 77 LegendMM LegendMM   99.17     LegendNANA

Notes on Data Quality.

Legend

  • E = Estimated
  • M = Missing
  • NA = Not Available
Date modified: